Time,TemperatureF,DewpointF,PressureIn,WindDirection,WindDirectionDegrees,WindSpeedMPH,WindSpeedGustMPH,Humidity,HourlyPrecipIn,Conditions,Clouds,dailyrainin,SoftwareType,DateUTC
2013-03-06 00:00:00,25.6,22.0,29.99,North,0,4.0,11.0,86,0.00,,,0.00,WUHU216HW,2013-03-06 06:00:00,
2013-03-06 00:05:00,25.6,22.0,29.99,WNW,293,6.7,11.0,86,0.00,,,0.00,WUHU216HW,2013-03-06 06:05:00,
2013-03-06 00:10:00,25.6,22.0,29.99,North,0,9.2,9.2,86,0.00,,,0.00,WUHU216HW,2013-03-06 06:10:00,
2013-03-06 00:15:00,25.6,22.0,29.99,NNW,338,8.1,11.0,86,0.00,,,0.00,WUHU216HW,2013-03-06 06:15:00,
2013-03-06 00:20:00,25.6,22.0,29.99,NNE,23,11.9,11.9,86,0.00,,,0.00,WUHU216HW,2013-03-06 06:20:00,
2013-03-06 00:25:00,25.6,22.0,30.00,North,0,6.9,11.9,86,0.00,,,0.00,WUHU216HW,2013-03-06 06:25:00,
2013-03-06 00:30:00,25.6,21.7,30.00,NNE,23,12.8,12.8,85,0.00,,,0.00,WUHU216HW,2013-03-06 06:30:00,
2013-03-06 00:35:00,25.6,21.7,30.00,NNW,338,4.9,12.8,85,0.00,,,0.00,WUHU216HW,2013-03-06 06:35:00,
2013-03-06 00:40:00,25.6,21.7,30.00,North,0,6.3,12.8,85,0.00,,,0.00,WUHU216HW,2013-03-06 06:40:00,
2013-03-06 00:45:00,25.6,21.7,30.00,North,0,6.5,8.1,85,0.00,,,0.00,WUHU216HW,2013-03-06 06:45:00,
2013-03-06 00:50:00,25.6,21.7,30.00,North,0,6.3,10.1,85,0.00,,,0.00,WUHU216HW,2013-03-06 06:50:00,
2013-03-06 00:55:00,25.6,21.7,30.01,NNE,23,6.5,10.1,85,0.00,,,0.00,WUHU216HW,2013-03-06 06:55:00,
2013-03-06 01:00:00,25.6,21.7,30.01,NW,315,6.3,8.7,85,0.00,,,0.00,WUHU216HW,2013-03-06 07:00:00,
2013-03-06 01:05:00,25.7,21.9,30.01,NW,315,4.7,7.6,85,0.00,,,0.00,WUHU216HW,2013-03-06 07:05:00,
2013-03-06 01:10:00,25.7,21.9,30.01,North,0,6.3,7.6,85,0.00,,,0.00,WUHU216HW,2013-03-06 07:10:00,
2013-03-06 01:15:00,25.6,21.7,30.01,NNW,338,3.4,8.5,85,0.00,,,0.00,WUHU216HW,2013-03-06 07:15:00,
2013-03-06 01:20:00,25.6,21.7,30.01,NW,315,3.4,8.5,85,0.00,,,0.00,WUHU216HW,2013-03-06 07:20:00,
2013-03-06 01:25:00,25.6,21.7,30.02,NNW,338,4.7,8.5,85,0.00,,,0.00,WUHU216HW,2013-03-06 07:25:00,
2013-03-06 01:30:00,25.6,21.7,30.02,North,0,7.2,8.9,85,0.00,,,0.00,WUHU216HW,2013-03-06 07:30:00,
2013-03-06 01:35:00,25.7,21.9,30.02,NW,315,9.4,11.4,85,0.00,,,0.00,WUHU216HW,2013-03-06 07:35:00,
2013-03-06 01:40:00,25.6,21.7,30.02,NNW,338,5.8,11.4,85,0.00,,,0.00,WUHU216HW,2013-03-06 07:40:00,
2013-03-06 01:45:00,25.6,21.7,30.02,North,0,8.3,9.4,85,0.00,,,0.00,WUHU216HW,2013-03-06 07:45:00,
2013-03-06 01:50:00,25.6,21.7,30.02,North,0,4.7,10.3,85,0.00,,,0.00,WUHU216HW,2013-03-06 07:50:00,
2013-03-06 01:55:00,25.6,21.7,30.02,North,0,3.6,10.3,85,0.00,,,0.00,WUHU216HW,2013-03-06 07:55:00,
2013-03-06 02:00:00,25.6,21.7,30.02,NNE,23,5.4,8.9,85,0.00,,,0.00,WUHU216HW,2013-03-06 08:00:00,
2013-03-06 02:05:00,25.4,21.5,30.02,NNW,338,6.3,8.9,85,0.00,,,0.00,WUHU216HW,2013-03-06 08:05:00,
2013-03-06 02:10:00,25.2,21.1,30.02,NW,315,7.6,8.9,84,0.00,,,0.00,WUHU216HW,2013-03-06 08:10:00,
2013-03-06 02:14:00,25.0,20.9,30.02,WNW,293,6.3,8.9,84,0.00,,,0.00,WUHU216HW,2013-03-06 08:14:00,
2013-03-06 02:19:00,24.8,20.7,30.02,ENE,68,8.5,8.5,84,0.00,,,0.00,WUHU216HW,2013-03-06 08:19:00,
2013-03-06 02:24:00,24.8,20.7,30.02,North,0,5.6,8.5,84,0.00,,,0.00,WUHU216HW,2013-03-06 08:24:00,
2013-03-06 02:29:00,24.8,20.7,30.02,NW,315,6.0,10.5,84,0.00,,,0.00,WUHU216HW,2013-03-06 08:29:00,
2013-03-06 02:34:00,24.8,20.7,30.03,NNW,338,4.7,10.5,84,0.00,,,0.00,WUHU216HW,2013-03-06 08:34:00,
2013-03-06 02:39:00,24.7,20.8,30.02,NNW,338,5.6,8.9,85,0.00,,,0.00,WUHU216HW,2013-03-06 08:39:00,
2013-03-06 02:44:00,24.5,20.3,30.03,North,0,4.0,10.1,84,0.00,,,0.00,WUHU216HW,2013-03-06 08:44:00,
2013-03-06 02:49:00,24.5,20.6,30.03,East,90,5.6,10.1,85,0.00,,,0.00,WUHU216HW,2013-03-06 08:49:00,
2013-03-06 02:54:00,24.3,20.4,30.03,NNE,23,7.2,8.3,85,0.00,,,0.00,WUHU216HW,2013-03-06 08:54:00,
2013-03-06 02:59:00,24.1,20.3,30.03,North,0,7.8,8.7,85,0.00,,,0.00,WUHU216HW,2013-03-06 08:59:00,
2013-03-06 03:04:00,23.9,20.1,30.03,North,0,5.8,8.7,85,0.00,,,0.00,WUHU216HW,2013-03-06 09:04:00,
2013-03-06 03:09:00,23.8,19.9,30.03,North,0,3.4,7.8,85,0.00,,,0.00,WUHU216HW,2013-03-06 09:09:00,
2013-03-06 03:14:00,23.8,19.9,30.03,NNE,23,4.0,8.5,85,0.00,,,0.00,WUHU216HW,2013-03-06 09:14:00,
2013-03-06 03:19:00,23.8,19.9,30.03,North,0,3.6,8.5,85,0.00,,,0.00,WUHU216HW,2013-03-06 09:19:00,
2013-03-06 03:24:00,23.6,19.7,30.03,NNE,23,4.0,5.1,85,0.00,,,0.00,WUHU216HW,2013-03-06 09:24:00,
2013-03-06 03:29:00,23.6,19.7,30.04,NNW,338,5.8,5.8,85,0.00,,,0.00,WUHU216HW,2013-03-06 09:29:00,
2013-03-06 03:34:00,23.6,19.7,30.04,WNW,293,4.0,10.3,85,0.00,,,0.00,WUHU216HW,2013-03-06 09:34:00,
2013-03-06 03:39:00,23.6,19.7,30.04,NE,45,6.0,10.3,85,0.00,,,0.00,WUHU216HW,2013-03-06 09:39:00,
2013-03-06 03:44:00,23.8,19.9,30.04,WSW,248,1.8,8.7,85,0.00,,,0.00,WUHU216HW,2013-03-06 09:44:00,
2013-03-06 03:49:00,23.8,19.9,30.04,NW,315,4.3,6.9,85,0.00,,,0.00,WUHU216HW,2013-03-06 09:49:00,
2013-03-06 03:54:00,23.8,19.9,30.05,NNW,338,4.3,8.5,85,0.00,,,0.00,WUHU216HW,2013-03-06 09:54:00,
2013-03-06 03:59:00,23.8,19.9,30.05,NNW,338,5.4,11.9,85,0.00,,,0.00,WUHU216HW,2013-03-06 09:59:00,
2013-03-06 04:04:00,23.8,19.9,30.05,North,0,6.3,11.9,85,0.00,,,0.00,WUHU216HW,2013-03-06 10:04:00,
2013-03-06 04:09:00,23.9,20.1,30.05,NNW,338,5.6,8.5,85,0.00,,,0.00,WUHU216HW,2013-03-06 10:09:00,
2013-03-06 04:14:00,23.9,20.1,30.05,NW,315,9.4,9.4,85,0.00,,,0.00,WUHU216HW,2013-03-06 10:14:00,
2013-03-06 04:19:00,23.9,20.1,30.05,NW,315,3.4,9.8,85,0.00,,,0.00,WUHU216HW,2013-03-06 10:19:00,
2013-03-06 04:24:00,23.8,19.9,30.05,North,0,5.4,11.2,85,0.00,,,0.00,WUHU216HW,2013-03-06 10:24:00,
2013-03-06 04:29:00,23.8,19.9,30.05,North,0,5.8,11.2,85,0.00,,,0.00,WUHU216HW,2013-03-06 10:29:00,
2013-03-06 04:34:00,23.8,19.9,30.06,North,0,3.6,9.6,85,0.00,,,0.00,WUHU216HW,2013-03-06 10:34:00,
2013-03-06 04:39:00,23.8,19.9,30.06,NNW,338,5.4,7.2,85,0.00,,,0.00,WUHU216HW,2013-03-06 10:39:00,
2013-03-06 04:44:00,23.8,20.2,30.06,West,270,3.8,7.6,86,0.00,,,0.00,WUHU216HW,2013-03-06 10:44:00,
2013-03-06 04:49:00,23.8,20.2,30.06,North,0,4.0,9.8,86,0.00,,,0.00,WUHU216HW,2013-03-06 10:49:00,
2013-03-06 04:54:00,23.8,20.2,30.06,NW,315,3.6,9.8,86,0.00,,,0.00,WUHU216HW,2013-03-06 10:54:00,
2013-03-06 04:59:00,23.8,20.2,30.06,North,0,5.4,8.7,86,0.00,,,0.00,WUHU216HW,2013-03-06 10:59:00,
2013-03-06 05:04:00,23.9,20.3,30.06,West,270,3.1,8.7,86,0.00,,,0.00,WUHU216HW,2013-03-06 11:04:00,
2013-03-06 05:09:00,23.9,20.3,30.06,NNE,23,6.9,9.8,86,0.00,,,0.00,WUHU216HW,2013-03-06 11:09:00,
2013-03-06 05:14:00,23.9,20.1,30.07,NW,315,9.6,9.8,85,0.00,,,0.00,WUHU216HW,2013-03-06 11:14:00,
2013-03-06 05:19:00,23.9,20.1,30.07,NW,315,4.9,12.8,85,0.00,,,0.00,WUHU216HW,2013-03-06 11:19:00,
2013-03-06 05:24:00,23.9,20.1,30.07,NNW,338,4.3,12.8,85,0.00,,,0.00,WUHU216HW,2013-03-06 11:24:00,
2013-03-06 05:29:00,23.9,20.1,30.07,NNW,338,2.7,12.5,85,0.00,,,0.00,WUHU216HW,2013-03-06 11:29:00,
2013-03-06 05:34:00,24.1,20.3,30.07,NNW,338,4.5,10.3,85,0.00,,,0.00,WUHU216HW,2013-03-06 11:34:00,
2013-03-06 05:39:00,24.1,20.3,30.08,NNW,338,4.7,8.7,85,0.00,,,0.00,WUHU216HW,2013-03-06 11:39:00,
2013-03-06 05:44:00,24.3,20.4,30.08,North,0,7.6,12.8,85,0.00,,,0.00,WUHU216HW,2013-03-06 11:44:00,
2013-03-06 05:49:00,24.5,20.6,30.08,NW,315,6.5,12.8,85,0.00,,,0.00,WUHU216HW,2013-03-06 11:49:00,
2013-03-06 05:54:00,24.5,20.6,30.08,North,0,6.3,11.9,85,0.00,,,0.00,WUHU216HW,2013-03-06 11:54:00,
2013-03-06 05:59:00,24.5,20.6,30.09,WNW,293,11.2,11.6,85,0.00,,,0.00,WUHU216HW,2013-03-06 11:59:00,
2013-03-06 06:04:00,24.7,20.8,30.09,NW,315,7.4,12.3,85,0.00,,,0.00,WUHU216HW,2013-03-06 12:04:00,
2013-03-06 06:09:00,24.7,20.8,30.09,NW,315,13.2,13.2,85,0.00,,,0.00,WUHU216HW,2013-03-06 12:09:00,
2013-03-06 06:14:00,24.7,20.8,30.09,NNW,338,7.6,15.0,85,0.00,,,0.00,WUHU216HW,2013-03-06 12:14:00,
2013-03-06 06:19:00,24.7,20.8,30.09,NNW,338,15.2,15.2,85,0.00,,,0.00,WUHU216HW,2013-03-06 12:19:00,
2013-03-06 06:24:00,24.8,21.0,30.09,NNW,338,9.8,15.2,85,0.00,,,0.00,WUHU216HW,2013-03-06 12:24:00,
2013-03-06 06:29:00,24.8,21.0,30.10,North,0,7.6,15.2,85,0.00,,,0.00,WUHU216HW,2013-03-06 12:29:00,
2013-03-06 06:34:00,24.8,21.0,30.10,NNE,23,4.7,14.3,85,0.00,,,0.00,WUHU216HW,2013-03-06 12:34:00,
2013-03-06 06:39:00,24.8,21.0,30.10,North,0,4.0,13.6,85,0.00,,,0.00,WUHU216HW,2013-03-06 12:39:00,
2013-03-06 06:44:00,24.8,21.0,30.10,NNW,338,13.2,18.3,85,0.00,,,0.00,WUHU216HW,2013-03-06 12:44:00,
2013-03-06 06:49:00,25.0,21.2,30.11,NW,315,5.4,18.3,85,0.00,,,0.00,WUHU216HW,2013-03-06 12:49:00,
2013-03-06 06:54:00,24.8,21.0,30.11,NNW,338,7.2,13.4,85,0.00,,,0.00,WUHU216HW,2013-03-06 12:54:00,
2013-03-06 06:59:00,24.8,21.0,30.11,NNW,338,8.3,15.7,85,0.00,,,0.00,WUHU216HW,2013-03-06 12:59:00,
2013-03-06 07:04:00,25.0,21.2,30.11,NNW,338,3.6,15.7,85,0.00,,,0.00,WUHU216HW,2013-03-06 13:04:00,
2013-03-06 07:09:00,25.0,21.2,30.11,NW,315,4.9,9.4,85,0.00,,,0.00,WUHU216HW,2013-03-06 13:09:00,
2013-03-06 07:14:00,25.2,21.3,30.11,NNW,338,6.9,9.2,85,0.00,,,0.00,WUHU216HW,2013-03-06 13:14:00,
2013-03-06 07:19:00,25.2,21.3,30.11,WNW,293,6.3,11.9,85,0.00,,,0.00,WUHU216HW,2013-03-06 13:19:00,
2013-03-06 07:24:00,25.4,21.5,30.12,NNW,338,8.5,11.9,85,0.00,,,0.00,WUHU216HW,2013-03-06 13:24:00,
2013-03-06 07:29:00,25.6,21.4,30.11,NNW,338,4.7,13.2,84,0.00,,,0.00,WUHU216HW,2013-03-06 13:29:00,
2013-03-06 07:34:00,25.6,21.4,30.12,NNW,338,3.6,13.2,84,0.00,,,0.00,WUHU216HW,2013-03-06 13:34:00,
2013-03-06 07:39:00,25.7,21.5,30.12,North,0,4.7,13.4,84,0.00,,,0.00,WUHU216HW,2013-03-06 13:39:00,
2013-03-06 07:44:00,25.7,21.2,30.12,North,0,3.4,13.4,83,0.00,,,0.00,WUHU216HW,2013-03-06 13:44:00,
2013-03-06 07:49:00,25.7,21.2,30.12,ENE,68,5.6,15.7,83,0.00,,,0.00,WUHU216HW,2013-03-06 13:49:00,
2013-03-06 07:54:00,25.9,21.7,30.13,North,0,3.6,15.7,84,0.00,,,0.00,WUHU216HW,2013-03-06 13:54:00,
2013-03-06 07:59:00,25.9,21.4,30.13,North,0,6.9,9.8,83,0.00,,,0.00,WUHU216HW,2013-03-06 13:59:00,
2013-03-06 08:04:00,25.9,21.4,30.13,NW,315,6.5,11.2,83,0.00,,,0.00,WUHU216HW,2013-03-06 14:04:00,
2013-03-06 08:09:00,25.9,21.4,30.13,NNE,23,1.8,11.2,83,0.00,,,0.00,WUHU216HW,2013-03-06 14:09:00,
2013-03-06 08:14:00,26.1,21.6,30.13,North,0,4.5,11.6,83,0.00,,,0.00,WUHU216HW,2013-03-06 14:14:00,
2013-03-06 08:19:00,26.3,21.8,30.13,North,0,6.9,11.6,83,0.00,,,0.00,WUHU216HW,2013-03-06 14:19:00,
2013-03-06 08:24:00,26.5,21.7,30.13,North,0,7.6,10.1,82,0.00,,,0.00,WUHU216HW,2013-03-06 14:24:00,
2013-03-06 08:29:00,26.6,22.2,30.13,WNW,293,5.6,11.6,83,0.00,,,0.00,WUHU216HW,2013-03-06 14:29:00,
2013-03-06 08:34:00,26.6,22.2,30.13,North,0,9.4,11.6,83,0.00,,,0.00,WUHU216HW,2013-03-06 14:34:00,
2013-03-06 08:39:00,26.8,22.0,30.13,NNW,338,7.4,10.5,82,0.00,,,0.00,WUHU216HW,2013-03-06 14:39:00,
2013-03-06 08:44:00,27.0,21.9,30.13,NNW,338,6.5,10.5,81,0.00,,,0.00,WUHU216HW,2013-03-06 14:44:00,
2013-03-06 08:49:00,27.4,22.2,30.14,NW,315,10.7,11.2,81,0.00,,,0.00,WUHU216HW,2013-03-06 14:49:00,
2013-03-06 08:54:00,27.2,22.1,30.14,NW,315,10.1,11.2,81,0.00,,,0.00,WUHU216HW,2013-03-06 14:54:00,
2013-03-06 08:59:00,27.4,22.2,30.14,NNW,338,5.4,11.2,81,0.00,,,0.00,WUHU216HW,2013-03-06 14:59:00,
2013-03-06 09:04:00,27.7,22.6,30.14,NW,315,4.0,10.1,81,0.00,,,0.00,WUHU216HW,2013-03-06 15:04:00,
2013-03-06 09:09:00,28.1,22.7,30.14,North,0,8.1,9.8,80,0.00,,,0.00,WUHU216HW,2013-03-06 15:09:00,
2013-03-06 09:14:00,27.9,22.2,30.15,NW,315,5.4,14.1,79,0.00,,,0.00,WUHU216HW,2013-03-06 15:14:00,
2013-03-06 09:19:00,27.7,22.1,30.15,NW,315,14.5,14.5,79,0.00,,,0.00,WUHU216HW,2013-03-06 15:19:00,
2013-03-06 09:24:00,27.9,22.5,30.15,NNW,338,6.0,14.5,80,0.00,,,0.00,WUHU216HW,2013-03-06 15:24:00,
2013-03-06 09:29:00,28.3,22.6,30.15,NNW,338,5.4,14.8,79,0.00,,,0.00,WUHU216HW,2013-03-06 15:29:00,
2013-03-06 09:34:00,28.3,22.2,30.15,NW,315,8.7,14.8,78,0.00,,,0.00,WUHU216HW,2013-03-06 15:34:00,
2013-03-06 09:39:00,28.6,22.6,30.15,North,0,2.7,12.8,78,0.00,,,0.00,WUHU216HW,2013-03-06 15:39:00,
2013-03-06 09:44:00,29.7,23.3,30.15,North,0,6.9,9.8,77,0.00,,,0.00,WUHU216HW,2013-03-06 15:44:00,
2013-03-06 09:49:00,30.1,23.4,30.15,NNE,23,7.8,9.8,76,0.00,,,0.00,WUHU216HW,2013-03-06 15:49:00,
2013-03-06 09:54:00,30.1,23.4,30.14,NNW,338,9.2,11.2,76,0.00,,,0.00,WUHU216HW,2013-03-06 15:54:00,
2013-03-06 09:59:00,29.9,23.2,30.14,North,0,4.0,11.2,76,0.00,,,0.00,WUHU216HW,2013-03-06 15:59:00,
2013-03-06 10:04:00,30.2,23.6,30.15,NNE,23,3.4,10.1,76,0.00,,,0.00,WUHU216HW,2013-03-06 16:04:00,
2013-03-06 10:09:00,30.6,24.0,30.15,NNW,338,5.4,9.2,76,0.00,,,0.00,WUHU216HW,2013-03-06 16:09:00,
2013-03-06 10:14:00,31.0,23.9,30.15,SW,225,3.4,9.2,75,0.00,,,0.00,WUHU216HW,2013-03-06 16:14:00,
2013-03-06 10:19:00,31.7,24.0,30.14,NNW,338,10.1,10.1,73,0.00,,,0.00,WUHU216HW,2013-03-06 16:19:00,
2013-03-06 10:24:00,31.1,23.5,30.15,North,0,6.7,14.3,73,0.00,,,0.00,WUHU216HW,2013-03-06 16:24:00,
2013-03-06 10:29:00,31.0,23.9,30.15,WNW,293,4.3,14.3,75,0.00,,,0.00,WUHU216HW,2013-03-06 16:29:00,
2013-03-06 10:34:00,31.3,23.9,30.15,NW,315,6.7,10.1,74,0.00,,,0.00,WUHU216HW,2013-03-06 16:34:00,
2013-03-06 10:39:00,31.3,23.9,30.15,North,0,6.9,9.8,74,0.00,,,0.00,WUHU216HW,2013-03-06 16:39:00,
2013-03-06 10:44:00,32.0,24.4,30.15,NNW,338,8.7,9.8,73,0.01,,,0.01,WUHU216HW,2013-03-06 16:44:00,
2013-03-06 10:49:00,31.1,23.5,30.15,NNW,338,7.6,14.3,73,0.01,,,0.01,WUHU216HW,2013-03-06 16:49:00,
2013-03-06 10:54:00,30.4,23.8,30.15,NW,315,3.4,15.2,76,0.01,,,0.01,WUHU216HW,2013-03-06 16:54:00,
2013-03-06 10:59:00,31.3,23.9,30.15,NNW,338,7.2,15.2,74,0.01,,,0.01,WUHU216HW,2013-03-06 16:59:00,
2013-03-06 11:04:00,31.3,23.9,30.15,WNW,293,6.9,11.4,74,0.01,,,0.01,WUHU216HW,2013-03-06 17:04:00,
2013-03-06 11:09:00,31.1,23.8,30.16,NNW,338,4.0,13.4,74,0.01,,,0.01,WUHU216HW,2013-03-06 17:09:00,
2013-03-06 11:14:00,31.3,24.3,30.15,NNE,23,5.4,13.4,75,0.01,,,0.01,WUHU216HW,2013-03-06 17:14:00,
2013-03-06 11:19:00,31.5,23.9,30.16,NW,315,6.3,12.3,73,0.01,,,0.01,WUHU216HW,2013-03-06 17:19:00,
2013-03-06 11:24:00,31.3,23.9,30.16,WNW,293,7.6,13.4,74,0.01,,,0.01,WUHU216HW,2013-03-06 17:24:00,
2013-03-06 11:29:00,31.1,24.1,30.16,West,270,7.4,13.4,75,0.01,,,0.01,WUHU216HW,2013-03-06 17:29:00,
2013-03-06 11:34:00,31.1,24.1,30.16,NW,315,6.7,14.3,75,0.01,,,0.01,WUHU216HW,2013-03-06 17:34:00,
2013-03-06 11:39:00,31.3,24.3,30.16,NW,315,6.9,14.3,75,0.01,,,0.01,WUHU216HW,2013-03-06 17:39:00,
2013-03-06 11:44:00,31.3,24.3,30.16,NW,315,11.4,11.4,75,0.00,,,0.01,WUHU216HW,2013-03-06 17:44:00,
2013-03-06 11:49:00,31.0,23.9,30.16,NW,315,12.8,15.2,75,0.00,,,0.01,WUHU216HW,2013-03-06 17:49:00,
2013-03-06 11:54:00,31.3,24.3,30.16,WNW,293,8.7,15.2,75,0.00,,,0.01,WUHU216HW,2013-03-06 17:54:00,
2013-03-06 11:59:00,31.5,24.1,30.16,NNW,338,9.2,12.1,74,0.00,,,0.01,WUHU216HW,2013-03-06 17:59:00,
2013-03-06 12:04:00,31.1,24.1,30.16,North,0,6.9,13.4,75,0.00,,,0.01,WUHU216HW,2013-03-06 18:04:00,
2013-03-06 12:09:00,31.9,24.8,30.15,NNW,338,2.5,13.4,75,0.00,,,0.01,WUHU216HW,2013-03-06 18:09:00,
2013-03-06 12:14:00,32.4,24.7,30.15,NNE,23,9.2,13.4,73,0.00,,,0.01,WUHU216HW,2013-03-06 18:14:00,
2013-03-06 12:19:00,32.2,24.6,30.15,North,0,11.4,11.4,73,0.00,,,0.01,WUHU216HW,2013-03-06 18:19:00,
2013-03-06 12:24:00,32.4,24.7,30.15,NNW,338,8.5,11.4,73,0.00,,,0.01,WUHU216HW,2013-03-06 18:24:00,
2013-03-06 12:29:00,32.6,24.8,30.15,NNW,338,8.5,11.4,73,0.00,,,0.01,WUHU216HW,2013-03-06 18:29:00,
2013-03-06 12:34:00,32.8,25.0,30.15,North,0,6.9,9.8,73,0.00,,,0.01,WUHU216HW,2013-03-06 18:34:00,
2013-03-06 12:39:00,32.9,25.2,30.15,North,0,6.3,9.8,73,0.00,,,0.01,WUHU216HW,2013-03-06 18:39:00,
2013-03-06 12:44:00,33.5,25.4,30.15,North,0,6.3,7.4,72,0.00,,,0.01,WUHU216HW,2013-03-06 18:44:00,
2013-03-06 12:49:00,34.2,25.4,30.14,NNW,338,4.9,9.2,70,0.00,,,0.01,WUHU216HW,2013-03-06 18:49:00,
2013-03-06 12:54:00,34.0,25.6,30.15,NW,315,4.3,9.2,71,0.00,,,0.01,WUHU216HW,2013-03-06 18:54:00,
2013-03-06 12:59:00,34.2,25.8,30.15,WNW,293,6.3,8.7,71,0.00,,,0.01,WUHU216HW,2013-03-06 18:59:00,
2013-03-06 13:04:00,34.4,25.9,30.15,WNW,293,4.5,7.6,71,0.00,,,0.01,WUHU216HW,2013-03-06 19:04:00,
2013-03-06 13:09:00,34.2,25.4,30.14,NNW,338,5.4,8.3,70,0.00,,,0.01,WUHU216HW,2013-03-06 19:09:00,
2013-03-06 13:14:00,34.2,25.4,30.14,NNW,338,4.3,8.3,70,0.00,,,0.01,WUHU216HW,2013-03-06 19:14:00,
2013-03-06 13:19:00,33.7,24.8,30.14,NNW,338,9.8,10.1,70,0.00,,,0.01,WUHU216HW,2013-03-06 19:19:00,
2013-03-06 13:24:00,33.3,24.8,30.14,NNW,338,7.4,10.5,71,0.00,,,0.01,WUHU216HW,2013-03-06 19:24:00,
2013-03-06 13:29:00,33.3,25.2,30.14,WNW,293,4.3,10.5,72,0.00,,,0.01,WUHU216HW,2013-03-06 19:29:00,
2013-03-06 13:34:00,33.5,25.0,30.14,NNW,338,10.3,12.5,71,0.00,,,0.01,WUHU216HW,2013-03-06 19:34:00,
2013-03-06 13:39:00,33.5,25.0,30.14,NNW,338,10.1,12.5,71,0.00,,,0.01,WUHU216HW,2013-03-06 19:39:00,
2013-03-06 13:44:00,33.5,25.0,30.14,NNW,338,5.6,11.0,71,0.00,,,0.01,WUHU216HW,2013-03-06 19:44:00,
2013-03-06 13:49:00,33.3,24.8,30.14,NW,315,8.9,10.7,71,0.00,,,0.01,WUHU216HW,2013-03-06 19:49:00,
2013-03-06 13:54:00,33.5,25.4,30.14,NW,315,4.0,10.5,72,0.00,,,0.01,WUHU216HW,2013-03-06 19:54:00,
2013-03-06 13:59:00,34.2,25.4,30.14,NNW,338,4.9,10.5,70,0.00,,,0.01,WUHU216HW,2013-03-06 19:59:00,
2013-03-06 14:04:00,34.2,25.4,30.14,NW,315,8.5,9.8,70,0.00,,,0.01,WUHU216HW,2013-03-06 20:04:00,
2013-03-06 14:09:00,34.0,25.2,30.13,NNE,23,7.8,12.3,70,0.00,,,0.01,WUHU216HW,2013-03-06 20:09:00,
2013-03-06 14:14:00,34.2,25.4,30.14,NW,315,7.2,12.3,70,0.00,,,0.01,WUHU216HW,2013-03-06 20:14:00,
2013-03-06 14:19:00,33.7,24.5,30.14,NNW,338,7.6,13.6,69,0.00,,,0.01,WUHU216HW,2013-03-06 20:19:00,
2013-03-06 14:24:00,33.8,24.7,30.14,NW,315,4.5,13.6,69,0.00,,,0.01,WUHU216HW,2013-03-06 20:24:00,
2013-03-06 14:29:00,33.8,24.7,30.14,NNW,338,3.6,10.7,69,0.00,,,0.01,WUHU216HW,2013-03-06 20:29:00,
2013-03-06 14:34:00,34.0,24.8,30.14,North,0,7.2,9.6,69,0.00,,,0.01,WUHU216HW,2013-03-06 20:34:00,
2013-03-06 14:39:00,34.2,25.0,30.14,NNW,338,5.6,8.5,69,0.00,,,0.01,WUHU216HW,2013-03-06 20:39:00,
2013-03-06 14:44:00,34.4,25.2,30.14,NNW,338,6.5,11.0,69,0.00,,,0.01,WUHU216HW,2013-03-06 20:44:00,
2013-03-06 14:49:00,34.9,25.7,30.14,North,0,3.4,11.0,69,0.00,,,0.01,WUHU216HW,2013-03-06 20:49:00,
2013-03-06 14:54:00,34.7,25.2,30.14,NNW,338,3.8,9.6,68,0.00,,,0.01,WUHU216HW,2013-03-06 20:54:00,
2013-03-06 14:59:00,34.4,25.2,30.14,NW,315,2.2,9.6,69,0.00,,,0.01,WUHU216HW,2013-03-06 20:59:00,
2013-03-06 15:04:00,34.6,25.0,30.14,NNW,338,7.4,8.9,68,0.00,,,0.01,WUHU216HW,2013-03-06 21:04:00,
2013-03-06 15:09:00,34.2,24.7,30.14,NNW,338,5.4,8.9,68,0.00,,,0.01,WUHU216HW,2013-03-06 21:09:00,
2013-03-06 15:14:00,33.8,25.0,30.14,WNW,293,6.5,13.6,70,0.00,,,0.01,WUHU216HW,2013-03-06 21:14:00,
2013-03-06 15:19:00,34.2,25.0,30.14,NW,315,3.4,13.6,69,0.00,,,0.01,WUHU216HW,2013-03-06 21:19:00,
2013-03-06 15:24:00,34.2,25.4,30.15,NW,315,2.7,9.8,70,0.00,,,0.01,WUHU216HW,2013-03-06 21:24:00,
2013-03-06 15:29:00,34.2,25.0,30.14,NNW,338,6.9,9.8,69,0.00,,,0.01,WUHU216HW,2013-03-06 21:29:00,
2013-03-06 15:33:00,33.8,25.0,30.14,NNW,338,7.6,10.1,70,0.00,,,0.01,WUHU216HW,2013-03-06 21:33:00,
2013-03-06 15:38:00,33.5,24.7,30.15,NW,315,5.4,10.1,70,0.00,,,0.01,WUHU216HW,2013-03-06 21:38:00,
2013-03-06 15:43:00,33.5,24.7,30.15,NW,315,6.9,9.2,70,0.00,,,0.01,WUHU216HW,2013-03-06 21:43:00,
2013-03-06 15:48:00,33.5,24.7,30.15,West,270,5.1,9.2,70,0.00,,,0.01,WUHU216HW,2013-03-06 21:48:00,
2013-03-06 15:53:00,33.7,24.8,30.14,NNW,338,6.5,8.9,70,0.00,,,0.01,WUHU216HW,2013-03-06 21:53:00,
2013-03-06 15:58:00,33.5,25.0,30.15,West,270,4.7,8.5,71,0.00,,,0.01,WUHU216HW,2013-03-06 21:58:00,
2013-03-06 16:03:00,33.8,25.0,30.15,WNW,293,6.3,8.5,70,0.00,,,0.01,WUHU216HW,2013-03-06 22:03:00,
2013-03-06 16:08:00,33.5,24.7,30.15,WNW,293,6.9,8.9,70,0.00,,,0.01,WUHU216HW,2013-03-06 22:08:00,
2013-03-06 16:13:00,33.5,24.7,30.15,West,270,6.0,8.9,70,0.00,,,0.01,WUHU216HW,2013-03-06 22:13:00,
2013-03-06 16:18:00,33.5,25.0,30.15,WNW,293,3.4,8.5,71,0.00,,,0.01,WUHU216HW,2013-03-06 22:18:00,
2013-03-06 16:23:00,33.5,24.7,30.15,West,270,3.1,8.5,70,0.00,,,0.01,WUHU216HW,2013-03-06 22:23:00,
2013-03-06 16:28:00,33.7,24.8,30.15,NW,315,3.6,9.4,70,0.00,,,0.01,WUHU216HW,2013-03-06 22:28:00,
2013-03-06 16:33:00,32.8,24.0,30.15,NW,315,5.4,9.4,70,0.00,,,0.01,WUHU216HW,2013-03-06 22:33:00,
2013-03-06 16:38:00,32.6,24.6,30.15,NNW,338,3.8,9.2,72,0.00,,,0.01,WUHU216HW,2013-03-06 22:38:00,
2013-03-06 16:43:00,32.4,24.4,30.15,NNW,338,4.0,9.4,72,0.00,,,0.01,WUHU216HW,2013-03-06 22:43:00,
2013-03-06 16:48:00,32.2,24.2,30.15,NNW,338,4.3,9.4,72,0.00,,,0.01,WUHU216HW,2013-03-06 22:48:00,
2013-03-06 16:53:00,32.2,24.2,30.15,NW,315,5.4,9.2,72,0.00,,,0.01,WUHU216HW,2013-03-06 22:53:00,
2013-03-06 16:58:00,32.0,24.0,30.15,WNW,293,2.2,8.7,72,0.00,,,0.01,WUHU216HW,2013-03-06 22:58:00,
2013-03-06 17:03:00,32.0,24.4,30.15,NNW,338,2.9,8.7,73,0.00,,,0.01,WUHU216HW,2013-03-06 23:03:00,
2013-03-06 17:08:00,31.9,24.2,30.15,NNW,338,4.7,7.4,73,0.00,,,0.01,WUHU216HW,2013-03-06 23:08:00,
2013-03-06 17:13:00,31.9,24.2,30.15,NNW,338,4.5,7.2,73,0.00,,,0.01,WUHU216HW,2013-03-06 23:13:00,
2013-03-06 17:18:00,31.7,24.0,30.15,NNW,338,4.7,6.9,73,0.00,,,0.01,WUHU216HW,2013-03-06 23:18:00,
2013-03-06 17:23:00,31.5,23.9,30.15,NNW,338,2.5,7.6,73,0.00,,,0.01,WUHU216HW,2013-03-06 23:23:00,
2013-03-06 17:28:00,31.5,24.1,30.15,NW,315,2.7,7.6,74,0.00,,,0.01,WUHU216HW,2013-03-06 23:28:00,
2013-03-06 17:33:00,31.3,24.3,30.15,NW,315,2.7,6.3,75,0.00,,,0.01,WUHU216HW,2013-03-06 23:33:00,
2013-03-06 17:38:00,31.1,24.1,30.15,NW,315,3.1,6.3,75,0.00,,,0.01,WUHU216HW,2013-03-06 23:38:00,
2013-03-06 17:43:00,31.1,24.1,30.15,NW,315,2.7,6.0,75,0.00,,,0.01,WUHU216HW,2013-03-06 23:43:00,
2013-03-06 17:48:00,31.0,24.3,30.16,NW,315,2.0,6.0,76,0.00,,,0.01,WUHU216HW,2013-03-06 23:48:00,
2013-03-06 17:53:00,30.8,24.1,30.16,NW,315,2.5,4.9,76,0.00,,,0.01,WUHU216HW,2013-03-06 23:53:00,
2013-03-06 17:58:00,30.6,24.0,30.16,WNW,293,4.0,5.6,76,0.00,,,0.01,WUHU216HW,2013-03-06 23:58:00,
2013-03-06 18:03:00,30.6,24.0,30.16,NW,315,2.9,5.6,76,0.00,,,0.01,WUHU216HW,2013-03-07 00:03:00,
2013-03-06 18:08:00,30.4,23.8,30.16,WNW,293,3.8,5.1,76,0.00,,,0.01,WUHU216HW,2013-03-07 00:08:00,
2013-03-06 18:13:00,30.2,23.9,30.17,WNW,293,4.0,4.9,77,0.00,,,0.01,WUHU216HW,2013-03-07 00:13:00,
2013-03-06 18:18:00,30.2,23.6,30.17,NNW,338,1.8,5.6,76,0.00,,,0.01,WUHU216HW,2013-03-07 00:18:00,
2013-03-06 18:23:00,30.2,23.6,30.17,WNW,293,3.4,6.9,76,0.00,,,0.01,WUHU216HW,2013-03-07 00:23:00,
2013-03-06 18:28:00,30.2,23.6,30.17,WNW,293,2.9,6.9,76,0.00,,,0.01,WUHU216HW,2013-03-07 00:28:00,
2013-03-06 18:33:00,30.1,23.7,30.17,West,270,2.5,5.6,77,0.00,,,0.01,WUHU216HW,2013-03-07 00:33:00,
2013-03-06 18:38:00,30.1,23.7,30.17,WNW,293,3.4,5.4,77,0.00,,,0.01,WUHU216HW,2013-03-07 00:38:00,
2013-03-06 18:43:00,29.9,23.5,30.17,West,270,2.5,5.4,77,0.00,,,0.01,WUHU216HW,2013-03-07 00:43:00,
2013-03-06 18:48:00,29.9,23.2,30.17,NW,315,2.7,6.5,76,0.00,,,0.01,WUHU216HW,2013-03-07 00:48:00,
2013-03-06 18:53:00,29.9,23.2,30.17,NNW,338,2.0,6.5,76,0.00,,,0.01,WUHU216HW,2013-03-07 00:53:00,
2013-03-06 18:58:00,29.7,23.1,30.17,NW,315,3.4,6.0,76,0.00,,,0.01,WUHU216HW,2013-03-07 00:58:00,
2013-03-06 19:03:00,29.7,23.1,30.17,WNW,293,3.4,6.0,76,0.00,,,0.01,WUHU216HW,2013-03-07 01:03:00,
2013-03-06 19:08:00,29.5,22.9,30.17,West,270,4.0,5.1,76,0.00,,,0.01,WUHU216HW,2013-03-07 01:08:00,
2013-03-06 19:13:00,29.5,22.9,30.17,NW,315,2.9,4.9,76,0.00,,,0.01,WUHU216HW,2013-03-07 01:13:00,
2013-03-06 19:18:00,29.3,22.7,30.17,West,270,3.4,4.9,76,0.00,,,0.01,WUHU216HW,2013-03-07 01:18:00,
2013-03-06 19:23:00,29.3,22.7,30.18,WNW,293,4.0,5.4,76,0.00,,,0.01,WUHU216HW,2013-03-07 01:23:00,
2013-03-06 19:28:00,29.3,22.7,30.17,NW,315,2.9,5.4,76,0.00,,,0.01,WUHU216HW,2013-03-07 01:28:00,
2013-03-06 19:33:00,29.2,22.5,30.17,West,270,4.5,5.4,76,0.00,,,0.01,WUHU216HW,2013-03-07 01:33:00,
2013-03-06 19:38:00,29.2,22.5,30.17,WNW,293,4.7,6.0,76,0.00,,,0.01,WUHU216HW,2013-03-07 01:38:00,
2013-03-06 19:43:00,29.2,22.5,30.17,NNW,338,4.7,6.5,76,0.00,,,0.01,WUHU216HW,2013-03-07 01:43:00,
2013-03-06 19:48:00,29.2,22.9,30.17,WNW,293,3.4,6.5,77,0.00,,,0.01,WUHU216HW,2013-03-07 01:48:00,
2013-03-06 19:53:00,29.0,22.7,30.17,NW,315,1.8,6.0,77,0.00,,,0.01,WUHU216HW,2013-03-07 01:53:00,
2013-03-06 19:58:00,29.0,22.7,30.17,WNW,293,2.7,6.0,77,0.00,,,0.01,WUHU216HW,2013-03-07 01:58:00,
2013-03-06 20:03:00,29.0,22.7,30.17,NNW,338,2.5,4.7,77,0.00,,,0.01,WUHU216HW,2013-03-07 02:03:00,
2013-03-06 20:08:00,28.8,22.5,30.17,WNW,293,3.4,4.7,77,0.00,,,0.01,WUHU216HW,2013-03-07 02:08:00,
2013-03-06 20:13:00,28.8,22.8,30.18,WNW,293,3.6,4.9,78,0.00,,,0.01,WUHU216HW,2013-03-07 02:13:00,
2013-03-06 20:18:00,28.8,22.5,30.18,NNW,338,6.3,6.3,77,0.00,,,0.01,WUHU216HW,2013-03-07 02:18:00,
2013-03-06 20:23:00,28.8,22.5,30.18,WNW,293,2.7,6.3,77,0.00,,,0.01,WUHU216HW,2013-03-07 02:23:00,
2013-03-06 20:28:00,28.8,22.5,30.18,NNW,338,4.7,7.6,77,0.00,,,0.01,WUHU216HW,2013-03-07 02:28:00,
2013-03-06 20:33:00,28.6,22.3,30.18,NW,315,3.6,7.6,77,0.00,,,0.01,WUHU216HW,2013-03-07 02:33:00,
2013-03-06 20:38:00,28.6,22.3,30.18,WNW,293,4.5,6.7,77,0.00,,,0.01,WUHU216HW,2013-03-07 02:38:00,
2013-03-06 20:43:00,28.6,22.3,30.18,WSW,248,1.6,6.7,77,0.00,,,0.01,WUHU216HW,2013-03-07 02:43:00,
2013-03-06 20:48:00,28.6,22.3,30.18,WSW,248,2.7,4.7,77,0.00,,,0.01,WUHU216HW,2013-03-07 02:48:00,
2013-03-06 20:53:00,28.4,22.2,30.18,WSW,248,4.0,4.5,77,0.00,,,0.01,WUHU216HW,2013-03-07 02:53:00,
2013-03-06 20:58:00,28.4,22.2,30.18,West,270,2.2,4.7,77,0.00,,,0.01,WUHU216HW,2013-03-07 02:58:00,
2013-03-06 21:03:00,28.4,22.2,30.18,WNW,293,2.5,4.7,77,0.00,,,0.01,WUHU216HW,2013-03-07 03:03:00,
2013-03-06 21:08:00,28.4,22.2,30.18,NW,315,1.3,3.8,77,0.00,,,0.01,WUHU216HW,2013-03-07 03:08:00,
2013-03-06 21:13:00,28.4,22.2,30.18,West,270,2.5,3.8,77,0.00,,,0.01,WUHU216HW,2013-03-07 03:13:00,
2013-03-06 21:18:00,28.4,22.2,30.19,WSW,248,2.7,4.0,77,0.00,,,0.01,WUHU216HW,2013-03-07 03:18:00,
2013-03-06 21:23:00,28.4,22.2,30.18,West,270,2.2,4.0,77,0.00,,,0.01,WUHU216HW,2013-03-07 03:23:00,
2013-03-06 21:28:00,28.4,22.2,30.19,NW,315,3.1,3.4,77,0.00,,,0.01,WUHU216HW,2013-03-07 03:28:00,
2013-03-06 21:33:00,28.4,21.5,30.19,North,0,2.0,7.4,75,0.00,,,0.01,WUHU216HW,2013-03-07 03:33:00,
2013-03-06 21:38:00,28.6,22.0,30.19,WNW,293,6.9,7.4,76,0.00,,,0.01,WUHU216HW,2013-03-07 03:38:00,
2013-03-06 21:43:00,28.6,21.7,30.19,WNW,293,5.6,6.9,75,0.00,,,0.01,WUHU216HW,2013-03-07 03:43:00,
2013-03-06 21:48:00,28.6,21.7,30.19,NW,315,4.5,8.3,75,0.00,,,0.01,WUHU216HW,2013-03-07 03:48:00,
2013-03-06 21:53:00,28.4,21.5,30.18,West,270,5.4,8.3,75,0.00,,,0.01,WUHU216HW,2013-03-07 03:53:00,
2013-03-06 21:58:00,28.4,21.8,30.19,West,270,4.0,6.9,76,0.00,,,0.01,WUHU216HW,2013-03-07 03:58:00,
2013-03-06 22:03:00,28.3,21.6,30.19,WNW,293,8.1,8.1,76,0.00,,,0.01,WUHU216HW,2013-03-07 04:03:00,
2013-03-06 22:08:00,28.1,21.4,30.19,NW,315,9.4,9.4,76,0.00,,,0.01,WUHU216HW,2013-03-07 04:08:00,
2013-03-06 22:13:00,28.1,21.2,30.19,WNW,293,9.4,10.3,75,0.00,,,0.01,WUHU216HW,2013-03-07 04:13:00,
2013-03-06 22:18:00,28.1,21.2,30.19,NNW,338,4.0,10.3,75,0.00,,,0.01,WUHU216HW,2013-03-07 04:18:00,
2013-03-06 22:23:00,27.9,21.0,30.19,NNW,338,4.7,10.3,75,0.00,,,0.01,WUHU216HW,2013-03-07 04:23:00,
2013-03-06 22:28:00,27.9,21.0,30.19,NW,315,7.6,10.3,75,0.00,,,0.01,WUHU216HW,2013-03-07 04:28:00,
2013-03-06 22:33:00,27.7,20.8,30.19,NNW,338,6.5,9.6,75,0.00,,,0.01,WUHU216HW,2013-03-07 04:33:00,
2013-03-06 22:38:00,27.7,20.8,30.19,NW,315,3.4,8.1,75,0.00,,,0.01,WUHU216HW,2013-03-07 04:38:00,
2013-03-06 22:43:00,27.7,21.1,30.19,NNW,338,1.8,7.8,76,0.00,,,0.01,WUHU216HW,2013-03-07 04:43:00,
2013-03-06 22:48:00,27.7,21.1,30.19,West,270,3.1,5.4,76,0.00,,,0.01,WUHU216HW,2013-03-07 04:48:00,
2013-03-06 22:53:00,27.5,20.6,30.19,WNW,293,3.4,5.4,75,0.00,,,0.01,WUHU216HW,2013-03-07 04:53:00,
2013-03-06 22:58:00,27.5,20.6,30.18,WNW,293,4.7,5.4,75,0.00,,,0.01,WUHU216HW,2013-03-07 04:58:00,
2013-03-06 23:00:00,27.4,20.4,30.18,North,0,2.7,5.4,75,0.00,,,0.01,WUHU216HW,2013-03-07 05:00:00,
2013-03-06 23:05:00,27.2,20.3,30.18,WNW,293,2.2,5.4,75,0.00,,,0.01,WUHU216HW,2013-03-07 05:05:00,
2013-03-06 23:10:00,27.0,20.1,30.18,NW,315,2.5,4.3,75,0.00,,,0.01,WUHU216HW,2013-03-07 05:10:00,
2013-03-06 23:15:00,26.6,19.7,30.18,NNW,338,1.8,3.8,75,0.00,,,0.01,WUHU216HW,2013-03-07 05:15:00,
2013-03-06 23:20:00,26.3,19.7,30.18,WNW,293,1.8,3.8,76,0.00,,,0.01,WUHU216HW,2013-03-07 05:20:00,
2013-03-06 23:25:00,25.9,19.4,30.18,NNW,338,1.3,2.5,76,0.00,,,0.01,WUHU216HW,2013-03-07 05:25:00,
2013-03-06 23:30:00,25.6,19.4,30.18,NW,315,2.0,3.4,77,0.00,,,0.01,WUHU216HW,2013-03-07 05:30:00,
2013-03-06 23:35:00,25.2,19.0,30.18,NNW,338,1.8,6.5,77,0.00,,,0.01,WUHU216HW,2013-03-07 05:35:00,
2013-03-06 23:40:00,25.0,18.8,30.18,NNW,338,2.5,6.5,77,0.00,,,0.01,WUHU216HW,2013-03-07 05:40:00,
2013-03-06 23:45:00,24.8,18.6,30.18,NW,315,4.0,4.7,77,0.00,,,0.01,WUHU216HW,2013-03-07 05:45:00,
2013-03-06 23:50:00,24.5,18.3,30.18,NW,315,1.1,4.0,77,0.00,,,0.01,WUHU216HW,2013-03-07 05:50:00,
2013-03-06 23:55:00,24.1,17.9,30.19,West,270,1.8,4.0,77,0.00,,,0.01,WUHU216HW,2013-03-07 05:55:00,